Location: Henham
(51.9333°N, 0.2500°E)
Time: 22:18:04
(UTC+00:00)

Cosmos 2058 Rocket - Pass Details

Date: 23 October 2019
Orbit: 611 x 638 km, 82.5° (Epoch: 17 November)

Event Time Altitude Azimuth Distance (km) Brightness Sun altitude
Rises 17:14:52 0° 175° (S) 2,866 6.6 -4.7°
Reaches altitude 10° 17:17:06 10° 170° (S) 1,965 5.7 -5.0°
Maximum altitude 17:21:19 52° 95° (E) 770 3.2 -5.7°
Drops below altitude 10° 17:25:34 10° 19° (NNE) 1,984 5.4 -6.3°
Sets 17:27:51 0° 15° (NNE) 2,897 6.2 -6.7°
